LEMUR-2-ARTFISCHER (42881 NORAD) Tracking and Keplerian Element Data

This shows tracking and keplerian element data for the satellite.

Feedback or suggestion? Click here.




ElementValue
Catalog42881
NameLEMUR-2-ARTFISCHER
Epoch Orbit27880
Epoch Day179.05064574
Epoch Year2022
RAAN20.7206
Inclination96.7724
Eccentricity0.0007532
Argument of Perigee259.7058
Mean Anonmoly100.3383
Mean Motion16.20161622
Decay Rate0.01864891
L11 42881U 17042BJ 22179.05064574 .01864891 20674-5 97750-3 0 9991
L22 42881 96.7724 20.7206 0007532 259.7058 100.3383 16.20161622278800



Live tracking and technical data element details for LEMUR-2-ARTFISCHER (NORAD 42881). LEMUR-2-ARTFISCHER can be tracked NOW for your location showing map with azimuth and elevation plus other details from your city location.







IsCatalogInMostPopularTable: catalog: 42881, numindb: 656
Update: records affected: 1



GetName: 42881 LEMUR-2-ARTFISCHER

Hit Count: updated at: Sat, 17 May 2025 06:20:30 GMT